STARLINK-30993, 58489

Orbit data source: Space-Track

STARLINK-30993, 58489 is a payload satellite owned by SpaceX/Seattle (US) in LEO that was launched on Sun, 03 Dec 2023 UTC via an FALCON 9 launch vehicle from the Air Force Eastern Test Range (AFETR). Payload-class satellites include a variety of spacecraft equipped with specific instruments for various scientific and technological missions. These include communications satellites like Starlink; space stations such as the ISS; scientific satellites like the Hubble; Earth observation satellites from companies like Planet Labs, Umbra, and HawkEye 360; GPS; miniature CubeSats for education and research; and military/defense satellites.

Loading next visibility...
Identifier
58489, 2023-186S
Orbit
LEO
Country
Flag of USUS
Related business
Manufacturer
SpaceX/Seattle
Mission
Operational Commercial Communications
Bus & Motor
STARLINK V2M, Unknown motor
Mass
730 kg wet, ~700 kg dry
Launch date (UTC)
2023-12-03 (3 years ago)
Launch vehicle
FALCON 9
Launch site
Air Force Eastern Test Range (AFETR)
Object type
Payload
Rocket body
Debris
Shape & HBR
Box + 2 Pan, 17.7 m
Radar Cross Section
33.884 m², Large (>1 m²)

Expand to show TLE details & history
Last TLE update: 2 days ago

TLE from 2 days ago
0 STARLINK-30993
1 58489U 23186S   26171.39946852 -.00001824  00000-0 -56798-4 0  9993
2 58489  42.9984 203.6548 0001255 264.6979  95.3729 15.27573430141598
Epoch: 2026-06-20T09:35Z
TLE epoch observation values (Epoch: 2026-06-20T09:35:14.080Z)
Latitude
-0.00003°
Longitude
151.23145°
Altitude
482.925 km
Speed
7.626 km/s
True Right ascension
13h 34m 37s
True Declination
0° 00' 00"
Sunlit
Object was in full shadow at epoch
Visualization orbit readout
Latitude
Unknown
Longitude
Unknown
Altitude
Unknown
Speed
Unknown
Apparent Right ascension
Unknown
Apparent Declination
Unknown
Sunlit
N/A
Visualization observer readout
Local Sidereal Time
21:26:35
Azimuth
Unknown
Elevation
Unknown
Doppler factor
Unknown
Orbital elements
Apogee altitude
485.876 km
Perigee altitude
484.153 km
Semi-major axis
6,863.151 km
Eccentricity
0.00013
Inclination
42.9984°
RAAN
203.6548°
Arg. of periapsis
264.6979°
True anomaly
95.38722°
Mean anomaly
95.3729°
Eccentric anomaly
95.38006°
Mean motion
3.81731 °/min
Orbital period
94.31 mins
BSTAR
-0.000056798
Loading maneuver chart data...
Computing Atmospheric mass density...
Loading historical data...
Loading historical data...
Loading historical data...
Loading historical data...
Loading historical data...
Loading historical data...
Loading historical data...

Documentation

Showing up to 5 results
|